RH
31 26 27 28 29 30 33 35 36 36 35 36 37 37 36 35 40 52 44 46 45 37 28 24 18 15 11 7 5 3 2 2 2 2 5 6 9 13 15 15 31 57 70 46 74
18 37 43 39 34 30 31 33 34 35 36 36 36 40 43 58 65 61 56 50 38 30 27 21 17 15 10 7 5 3 2 2 2 3 4 5 8 11 14 16 20 51 78 63 68
16 16 18 23 31 44 52 54 54 54 61 68 72 69 71 70 61 66 57 38 25 24 22 19 16 17 11 7 5 3 2 2 2 3 4 5 8 10 13 16 16 45 79 75 57
30 20 18 24 28 29 28 28 30 37 55 59 69 73 82 81 66 44 29 24 22 20 21 20 16 18 12 7 6 3 2 2 2 3 4 5 8 10 12 17 16 37 83 82 55
34 32 23 22 19 18 19 23 25 30 41 47 59 55 40 34 33 28 26 22 22 24 24 23 20 21 14 8 7 4 3 3 2 2 4 5 8 10 12 16 16 25 78 88 58
63 46 36 29 26 24 25 25 21 21 22 23 27 28 30 29 28 26 24 22 23 26 25 27 24 23 18 10 7 6 3 3 2 2 3 4 7 8 12 15 16 19 62 89 75
75 72 57 48 39 40 35 29 27 28 25 24 24 29 34 37 31 29 29 29 28 28 27 29 29 26 27 14 10 9 5 4 3 2 2 4 6 9 12 14 16 18 37 91 66
85 80 82 67 64 58 59 44 40 34 35 32 32 39 40 49 40 31 37 33 30 29 28 31 32 29 33 23 17 11 8 4 4 2 2 3 7 11 10 12 17 16 24 78 68
81 78 94 90 86 73 82 70 56 51 44 43 38 40 40 45 45 46 41 38 30 28 31 30 31 31 31 34 30 16 12 7 4 3 2 3 4 10 9 10 14 16 19 46 66
80 80 89 86 94 100 98 96 76 61 58 55 50 48 46 55 56 54 52 52 34 31 31 31 31 34 30 36 42 25 14 12 7 5 3 4 3 8 9 9 12 16 17 26 50
97 97 74 70 76 68 83 94 91 85 77 68 59 63 60 57 58 68 63 52 43 38 35 38 35 36 34 36 43 44 20 16 11 7 4 3 3 5 10 10 11 16 17 18 34
87 82 91 88 79 80 69 81 99 81 74 72 68 65 62 64 62 60 74 67 47 41 37 39 42 36 38 37 37 50 34 20 16 10 6 4 3 3 8 12 12 15 18 18 24
66 51 59 67 65 90 88 93 100 100 99 84 69 67 64 75 69 61 64 72 57 43 37 35 45 39 35 37 34 47 51 29 19 16 9 5 4 4 6 12 12 16 17 18 21
49 44 51 60 95 94 85 76 94 99 97 90 95 95 87 88 73 64 53 67 64 52 38 35 48 45 34 36 36 42 51 57 26 20 14 9 5 5 6 13 12 14 15 18 19
50 83 86 82 96 100 92 100 91 82 69 76 79 85 100 91 83 63 55 57 47 45 43 33 48 42 36 35 40 35 44 64 46 25 20 13 8 6 4 10 14 12 14 17 17
100 100 100 100 85 87 90 87 83 94 95 76 80 100 100 92 76 65 61 52 53 52 40 31 49 42 39 38 41 39 42 50 64 42 25 19 13 8 5 6 13 11 14 16 16
100 100 100 100 100 97 98 97 94 99 98 100 100 100 100 98 90 76 70 62 51 53 41 38 41 42 38 39 38 45 45 50 60 60 37 25 18 12 7 5 10 11 13 14 15
100 100 100 100 100 100 100 100 100 99 100 100 98 90 94 100 91 82 78 72 47 42 39 49 48 41 40 40 38 40 46 48 46 57 52 29 23 17 10 6 6 10 11 13 14
85 92 94 87 84 93 88 80 80 73 68 70 64 64 71 76 74 78 91 71 47 36 41 50 59 47 49 45 41 42 43 50 58 50 55 48 29 20 13 7 6 8 11 12 13
51 82 100 100 100 99 94 90 77 64 57 62 71 67 80 76 79 78 77 80 57 42 41 50 55 55 53 58 52 43 40 45 48 59 56 63 43 26 15 10 6 6 11 11 12
50 57 64 64 70 68 57 53 49 48 49 56 59 58 66 91 96 94 85 74 65 50 45 47 56 58 55 53 58 55 41 45 45 52 63 51 68 43 25 15 8 7 10 11 12
47 50 57 72 60 64 65 55 48 48 52 56 59 57 59 76 81 82 84 69 71 73 67 56 48 70 68 48 58 57 47 43 45 50 54 64 62 64 39 23 14 9 8 10 11
55 55 63 53 53 59 62 59 56 56 54 57 60 58 67 78 72 81 76 64 64 60 61 62 53 66 83 76 56 56 52 46 47 43 48 50 57 78 65 35 21 11 10 11 11
67 66 57 53 56 57 61 61 57 61 62 65 73 82 92 93 84 92 90 90 88 81 60 50 60 53 57 82 78 75 60 54 48 42 61 41 53 62 68 62 29 20 10 11 12
67 60 55 54 60 63 72 77 73 70 69 77 83 97 95 93 98 78 98 100 100 100 91 75 78 88 56 65 65 64 99 87 58 47 48 46 50 55 60 72 57 30 20 10 13
55 54 50 61 72 84 85 85 95 90 92 94 80 87 92 88 86 90 88 91 98 97 86 78 74 77 85 99 58 60 68 100 83 58 54 42 49 53 51 61 75 47 32 17 10
47 40 42 56 80 95 100 95 95 90 96 92 92 82 72 71 51 54 58 72 77 86 93 72 66 48 42 86 82 44 94 100 84 63 54 52 45 44 51 56 61 79 46 31 17
Wind_Speed
22 21 21 22 24 26 28 30 32 35 37 39 41 42 44 46 49 53 55 58 60 64 65 60 59 61 61 65 66 57 50 46 49 62 78 88 94 96 89 82 84 78 72 70 59
24 25 26 28 29 30 32 34 35 35 37 39 42 44 46 49 54 56 56 58 62 60 57 57 56 59 58 60 61 52 42 40 43 57 72 81 90 95 91 86 85 81 73 71 59
28 25 26 29 30 32 34 36 38 40 42 43 45 47 49 50 53 54 56 55 53 54 55 55 55 57 55 56 57 46 37 36 41 52 69 79 91 94 93 89 84 84 77 73 70
30 28 25 23 23 27 32 35 38 39 41 43 43 43 43 45 48 50 49 48 52 51 50 52 52 55 53 51 52 43 33 33 35 47 65 77 89 94 95 90 84 86 80 75 66
32 30 28 29 28 27 27 29 31 34 37 39 39 40 43 44 43 47 48 48 48 45 45 47 49 51 52 49 47 42 32 28 32 43 58 73 87 95 95 91 84 87 83 77 70
34 34 31 31 32 33 31 33 32 32 36 36 38 40 42 42 43 45 47 46 46 44 43 46 49 50 53 49 47 42 34 25 29 39 53 67 84 90 95 94 88 89 87 80 68
39 35 35 35 38 36 35 37 37 40 41 39 42 43 45 47 49 50 48 46 48 49 46 48 47 51 52 53 52 49 37 25 23 34 49 59 79 89 103 98 92 88 89 84 79
42 40 40 41 39 41 40 42 42 46 46 46 46 46 50 50 53 55 50 49 50 51 50 48 48 48 50 53 56 56 42 29 20 29 42 56 78 97 100 98 94 89 90 87 81
42 42 40 43 46 45 44 44 43 44 49 49 51 49 52 52 53 55 54 54 53 52 52 47 47 48 50 51 57 59 50 35 20 23 35 50 67 91 96 97 96 92 88 89 86
46 46 44 44 46 49 47 47 46 47 46 49 51 52 54 54 55 57 57 58 57 54 51 49 47 47 49 49 54 58 56 44 27 18 25 40 58 80 93 92 96 93 87 88 87
50 49 50 49 49 49 50 51 46 48 51 51 51 52 55 56 57 58 59 58 60 53 50 47 48 47 48 47 50 54 57 52 37 23 16 32 48 68 88 91 95 94 90 89 91
57 53 52 52 50 49 53 53 52 54 59 56 50 54 57 56 58 59 60 61 60 54 52 47 46 46 47 48 46 50 53 55 47 29 17 20 39 56 80 94 98 98 94 90 92
57 55 52 52 52 52 52 55 51 54 56 57 57 57 56 58 61 62 62 61 58 54 53 47 41 44 44 47 42 46 49 52 52 41 23 16 27 44 68 91 99 101 98 95 94
60 56 55 54 54 55 55 57 58 59 60 60 58 57 56 59 61 62 62 60 57 58 52 48 40 41 45 45 40 40 45 48 50 49 32 18 14 32 58 86 96 103 100 98 96
57 56 57 57 57 58 58 56 59 62 59 63 64 62 61 64 65 64 59 58 59 55 50 43 37 36 43 41 37 36 39 43 46 48 42 25 11 24 47 75 96 102 103 100 96
58 58 61 64 65 64 61 61 63 65 64 65 63 61 65 70 70 63 58 57 59 55 49 40 32 34 38 36 33 33 35 39 41 43 46 34 16 15 35 59 88 95 102 102 97
63 63 65 68 69 67 66 64 65 66 69 67 67 67 71 72 68 61 57 58 51 47 44 41 33 32 35 32 30 31 31 36 39 40 40 43 29 11 24 46 76 91 101 103 99
68 69 69 69 67 67 69 69 69 73 74 71 70 70 67 65 62 57 55 55 51 40 34 37 38 32 33 31 29 28 28 29 33 35 38 38 39 19 12 32 60 84 97 103 100
62 63 64 67 68 68 70 70 71 69 68 69 68 66 64 62 57 55 55 55 46 38 33 34 39 35 29 29 28 27 25 27 31 37 35 37 39 33 13 19 44 74 94 104 105
66 67 71 74 76 78 79 81 81 81 79 74 71 70 68 66 64 64 57 56 47 41 38 38 35 37 30 30 31 30 26 25 26 30 35 34 36 38 24 9 30 63 89 105 107
70 65 70 69 75 78 78 78 76 76 74 72 72 71 71 69 67 62 57 56 50 50 46 41 36 41 37 30 29 28 28 26 26 25 30 31 34 33 34 14 16 49 82 102 108
72 73 74 74 76 72 73 73 69 66 67 68 69 69 69 68 67 64 60 58 56 55 54 48 37 38 45 39 33 32 29 26 25 26 24 32 32 31 31 26 8 32 71 97 112
77 77 76 75 70 70 70 69 65 64 65 65 65 64 64 65 64 59 57 54 55 54 51 50 42 40 42 46 40 33 32 27 24 24 28 24 30 31 29 27 16 17 47 89 110
89 84 80 76 74 71 70 65 65 63 64 64 65 65 64 65 65 61 59 59 61 60 57 50 46 46 41 47 44 37 37 36 29 27 31 25 31 28 27 25 22 8 28 69 102
92 83 80 78 74 72 69 67 66 65 64 65 65 68 70 70 72 71 66 67 69 70 71 70 61 63 54 50 49 42 39 47 40 38 32 34 32 29 27 23 22 17 12 39 83
87 85 78 76 73 72 70 68 68 67 68 72 72 73 75 76 74 73 77 79 78 81 81 80 73 67 63 68 62 48 43 51 56 47 42 37 37 29 30 26 22 18 12 20 52
84 80 75 72 70 72 72 72 72 71 74 75 78 79 81 83 80 78 77 78 78 81 85 85 83 79 64 71 73 51 54 59 60 56 51 45 41 36 32 30 25 21 16 10 26
Wind_Direction
307 298 291 286 283 284 286 287 289 292 292 291 291 290 290 290 291 294 297 301 301 301 301 303 302 303 304 305 303 300 285 267 244 233 223 224 221 221 223 222 221 218 218 216 220
318 303 299 297 294 291 289 289 288 287 287 288 288 290 292 294 297 299 301 301 303 304 304 306 306 309 313 314 311 305 289 269 244 229 222 221 219 218 217 218 217 216 214 216 216
353 339 314 297 293 293 292 291 290 290 289 290 292 294 295 297 299 300 301 302 303 305 308 312 313 314 318 324 318 309 293 268 244 231 220 217 217 214 213 215 214 214 213 213 215
347 346 342 333 325 313 304 297 293 292 293 294 297 299 299 298 298 298 299 302 310 313 317 319 321 321 324 331 330 318 301 274 252 232 223 216 215 212 211 212 211 212 211 211 214
339 341 341 340 337 334 328 324 319 313 305 301 298 297 297 297 298 299 304 308 313 321 324 326 327 328 331 335 340 330 310 283 255 234 226 218 214 211 208 209 210 209 208 210 209
330 331 332 332 333 330 329 328 328 328 327 315 309 310 312 313 315 318 314 314 319 327 330 335 333 335 336 340 349 345 326 299 261 235 229 219 215 211 208 208 207 207 207 207 202
323 321 322 324 326 327 324 325 327 327 331 330 332 333 328 326 328 330 328 328 327 330 336 337 340 338 341 346 355 356 343 319 275 244 231 221 213 209 208 205 205 206 206 204 201
318 316 318 320 319 321 320 321 320 326 330 331 332 331 335 330 331 332 328 328 329 330 333 337 339 342 343 348 355 360 357 337 294 255 236 220 213 209 210 205 204 206 205 203 199
312 314 312 312 312 315 318 316 314 318 325 327 329 328 329 329 329 330 329 328 329 331 330 334 338 342 345 349 353 357 3 353 323 272 244 227 216 211 212 205 202 204 205 204 201
312 308 307 309 312 312 314 314 311 314 317 322 321 324 326 326 326 327 327 328 331 331 330 330 338 342 344 348 350 356 3 2 346 307 256 232 221 213 212 206 203 204 205 205 201
308 309 307 308 307 309 310 311 307 308 314 317 318 318 319 322 324 323 324 325 330 328 331 329 333 340 342 346 347 354 360 7 358 344 284 235 223 212 212 207 203 203 204 206 203
308 308 305 306 306 305 308 307 305 306 308 313 313 315 316 317 320 320 320 321 325 325 328 327 330 338 341 342 345 351 356 3 8 358 330 252 230 215 211 208 204 202 203 205 205
304 306 306 306 305 300 303 306 301 302 307 309 311 310 312 314 317 319 316 317 322 325 324 326 326 332 337 340 342 347 353 359 9 7 350 293 239 220 212 208 205 203 203 204 205
302 300 299 299 300 298 301 302 298 299 301 303 306 306 304 308 312 315 316 315 318 322 322 322 323 325 332 336 337 344 351 355 3 11 1 337 273 224 212 209 207 204 203 204 205
299 299 298 299 300 298 299 294 296 297 299 301 303 303 299 304 309 313 311 311 315 318 317 317 318 322 326 334 334 340 347 352 357 5 9 353 318 239 216 209 208 205 204 204 205
300 300 296 297 298 297 295 294 294 294 296 299 301 297 298 302 307 309 306 308 312 313 314 312 313 316 323 328 332 336 343 347 353 360 4 5 343 261 227 213 210 206 204 203 204
295 294 294 296 296 296 293 292 294 295 295 296 296 295 296 300 302 304 302 305 310 310 311 309 310 313 317 323 330 333 336 343 349 351 359 4 358 316 241 219 212 208 203 202 201
292 292 292 292 291 288 289 290 291 290 291 294 293 294 295 295 298 300 300 304 306 306 309 305 305 313 313 320 325 328 330 336 339 346 350 359 7 343 272 230 215 211 203 200 201
296 297 297 295 293 290 291 294 294 293 293 294 295 294 293 293 296 299 297 299 301 299 307 305 302 307 306 311 321 322 326 330 337 339 347 351 358 2 318 240 218 211 204 200 199
300 296 297 294 292 290 290 291 291 292 291 291 289 290 289 289 292 295 295 293 290 292 297 302 297 296 299 301 308 313 317 324 330 335 337 342 349 358 355 288 223 210 206 201 199
297 299 299 301 294 293 293 293 292 290 289 286 286 287 286 286 289 288 287 286 284 283 287 288 287 286 287 296 302 303 307 312 321 326 331 334 339 350 356 337 232 212 206 202 199
299 299 300 299 298 297 296 295 293 291 289 285 283 284 285 282 282 282 280 281 279 278 280 277 275 278 283 284 285 293 294 302 311 317 323 326 333 338 349 356 296 217 209 204 201
307 305 302 302 299 297 296 294 291 291 289 286 285 286 285 283 282 283 282 281 279 277 274 273 269 267 275 278 277 280 284 287 298 307 310 323 321 329 336 346 344 225 214 207 204
311 306 303 300 302 299 297 293 292 289 288 287 287 287 286 285 285 284 284 282 283 283 282 273 272 268 267 271 271 272 275 278 282 289 302 306 314 316 322 331 343 303 217 212 208
308 304 303 298 298 297 297 296 295 292 289 286 286 284 283 282 280 281 279 277 276 276 277 277 275 276 271 267 266 263 268 276 277 281 289 292 301 306 305 312 322 341 254 217 213
304 303 299 296 295 295 294 292 292 289 287 288 285 283 281 278 277 278 279 278 277 279 277 278 276 269 265 270 267 261 262 266 271 275 279 281 288 293 289 294 301 311 329 234 214
303 300 298 295 292 291 291 293 290 288 287 284 282 281 280 280 280 277 275 273 272 272 274 273 272 270 262 258 261 259 257 258 264 272 275 275 276 279 277 278 282 288 295 301 226